This is the latest recevied weather packets stored in our database for station/object OH5GWF-1. If no packets are shown the sender has not sent any weather packets the latest 10 day(s).
| Time | Temp. | Humidity | Pressure | Rain* | Wind** | Luminosity | Snow |
|---|---|---|---|---|---|---|---|
| 1778096949 | 1.67° C | 59% | 1014.2 hPa | 0 mm | - | - | - |
| 1778096528 | 2.22° C | 59% | 1014.3 hPa | 0 mm | - | - | - |
| 1778096107 | 2.22° C | 58% | 1014.1 hPa | 0 mm | - | - | - |
| 1778095687 | 2.22° C | 57% | 1014.2 hPa | 0 mm | - | - | - |
| 1778095265 | 2.22° C | 56% | 1014.2 hPa | 0 mm | - | - | - |
| 1778094844 | 2.78° C | 54% | 1014.1 hPa | 0 mm | - | - | - |
| 1778094422 | 2.78° C | 52% | 1014.1 hPa | 0 mm | - | - | - |
| 1778094001 | 2.78° C | 50% | 1014.1 hPa | 0 mm | - | - | - |
| 1778093592 | 3.33° C | 48% | 1014.1 hPa | 0 mm | - | - | - |
| 1778093170 | 3.33° C | 47% | 1014.1 hPa | 0 mm | - | - | - |
| 1778092748 | 3.89° C | 44% | 1014 hPa | 0 mm | - | - | - |
| 1778092325 | 3.89° C | 42% | 1014 hPa | 0 mm | - | - | - |
| 1778091904 | 3.89° C | 42% | 1014 hPa | 0 mm | - | - | - |
| 1778091483 | 4.44° C | 40% | 1013.9 hPa | 0 mm | - | - | - |
| 1778091073 | 5° C | 39% | 1013.9 hPa | 0 mm | - | - | - |
| 1778090651 | 5.56° C | 39% | 1013.9 hPa | 0 mm | - | - | - |
| 1778090228 | 5.56° C | 38% | 1013.7 hPa | 0 mm | - | - | - |
| 1778089806 | 6.11° C | 38% | 1013.7 hPa | 0 mm | - | - | - |
| 1778089385 | 6.67° C | 37% | 1013.7 hPa | 0 mm | - | - | - |
| 1778088964 | 7.22° C | 37% | 1013.8 hPa | 0 mm | - | - | - |
| 1778088542 | 7.78° C | 37% | 1013.7 hPa | 0 mm | - | - | - |
| 1778088130 | 7.78° C | 36% | 1013.7 hPa | 0 mm | - | - | - |
| 1778087710 | 8.33° C | 36% | 1013.7 hPa | 0 mm | - | - | - |
| 1778087288 | 8.33° C | 36% | 1013.6 hPa | 0 mm | - | - | - |
| 1778086866 | 8.89° C | 35% | 1013.5 hPa | 0 mm | - | - | - |
* Rain latest hour (hover to see other rain measurements)
** Current wind speed in m/s (hover to see current wind gust speed)